• Em Portugal
  • Lista de países
  • Para 7 dias
  • Temperatura da água
  • Mapas de satélite
  • Mapa do tempo
  • Widgets de tempo
  • user-avatar
    Iniciar Sessão

    Previsão horária em Salta

    Hoje, 16 Agosto, Quinta-feira

    Tempo Temperatura Precipitação Vento Pressão Humidade
    00:00 +12°C° 0 mm 1 m/s 653 mmHg 48%
    01:00 +11°C° 0 mm 1 m/s 653 mmHg 48%
    02:00 +11°C° 0 mm 1 m/s 653 mmHg 48%
    03:00 +11°C° 0 mm 1 m/s 653 mmHg 48%
    04:00 +10°C° 0 mm 1 m/s 652 mmHg 47%
    05:00 +10°C° 0 mm 1 m/s 652 mmHg 47%
    06:00 +11°C° 0 mm 1 m/s 653 mmHg 44%
    07:00 +12°C° 0 mm 1 m/s 654 mmHg 41%
    08:00 +14°C° 0 mm 1 m/s 654 mmHg 38%
    09:00 +16°C° 0 mm 1 m/s 655 mmHg 33%
    10:00 +19°C° 0 mm 1 m/s 656 mmHg 28%
    11:00 +21°C° 0 mm 2 m/s 656 mmHg 23%
    12:00 +23°C° 0 mm 2 m/s 656 mmHg 22%
    13:00 +24°C° 0 mm 2 m/s 656 mmHg 21%
    14:00 +25°C° 0 mm 3 m/s 655 mmHg 20%
    15:00 +24°C° 0 mm 3 m/s 655 mmHg 21%
    16:00 +23°C° 0 mm 2 m/s 654 mmHg 23%
    17:00 +23°C° 0 mm 2 m/s 654 mmHg 25%
    18:00 +20°C° 0 mm 2 m/s 654 mmHg 30%
    19:00 +18°C° 0 mm 1 m/s 654 mmHg 35%
    20:00 +15°C° 0 mm 1 m/s 654 mmHg 41%
    21:00 +15°C° 0 mm 1 m/s 654 mmHg 42%
    22:00 +14°C° 0 mm 1 m/s 654 mmHg 43%
    23:00 +14°C° 0 mm 1 m/s 654 mmHg 44%

    Amanhã, 17 Agosto, Sexta-feira

    Tempo Temperatura Precipitação Vento Pressão Humidade
    00:00 +13°C° 0 mm 1 m/s 653 mmHg 45%
    01:00 +13°C° 0 mm 1 m/s 653 mmHg 45%
    02:00 +13°C° 0 mm 1 m/s 653 mmHg 45%
    03:00 +12°C° 0 mm 1 m/s 652 mmHg 45%
    04:00 +12°C° 0 mm 1 m/s 652 mmHg 45%
    05:00 +12°C° 0 mm 1 m/s 652 mmHg 45%
    06:00 +13°C° 0 mm 1 m/s 652 mmHg 44%
    07:00 +14°C° 0 mm 1 m/s 653 mmHg 42%
    08:00 +15°C° 0 mm 1 m/s 654 mmHg 41%
    09:00 +19°C° 0 mm 1 m/s 654 mmHg 36%
    10:00 +20°C° 0 mm 2 m/s 655 mmHg 32%
    11:00 +23°C° 0 mm 2 m/s 656 mmHg 28%
    12:00 +24°C° 0 mm 2 m/s 655 mmHg 27%
    13:00 +25°C° 0 mm 2 m/s 654 mmHg 25%
    14:00 +26°C° 0 mm 3 m/s 654 mmHg 24%
    15:00 +26°C° 0 mm 3 m/s 653 mmHg 27%
    16:00 +25°C° 0 mm 3 m/s 653 mmHg 29%
    17:00 +25°C° 0 mm 2 m/s 652 mmHg 32%
    18:00 +23°C° 0 mm 2 m/s 652 mmHg 39%
    19:00 +19°C° 0 mm 2 m/s 652 mmHg 46%
    20:00 +18°C° 0 mm 1 m/s 651 mmHg 53%
    21:00 +18°C° 0 mm 1 m/s 652 mmHg 54%
    22:00 +16°C° 0 mm 1 m/s 652 mmHg 56%
    23:00 +16°C° 0 mm 1 m/s 652 mmHg 57%

    Depois de amanhã, 18 Agosto, Sábado

    Tempo Temperatura Precipitação Vento Pressão Humidade
    00:00 +16°C° 0 mm 1 m/s 651 mmHg 57%
    01:00 +15°C° 0 mm 1 m/s 651 mmHg 56%
    02:00 +15°C° 0 mm 1 m/s 650 mmHg 56%
    03:00 +15°C° 0 mm 1 m/s 650 mmHg 55%
    04:00 +15°C° 0 mm 1 m/s 650 mmHg 53%
    05:00 +15°C° 0 mm 1 m/s 650 mmHg 52%
    06:00 +16°C° 0 mm 1 m/s 650 mmHg 50%
    07:00 +18°C° 0 mm 1 m/s 651 mmHg 48%
    08:00 +19°C° 0 mm 1 m/s 651 mmHg 46%
    09:00 +20°C° 0 mm 2 m/s 652 mmHg 41%
    10:00 +24°C° 0 mm 2 m/s 652 mmHg 37%
    11:00 +26°C° 0 mm 2 m/s 653 mmHg 33%
    12:00 +27°C° 0 mm 2 m/s 652 mmHg 31%
    13:00 +28°C° 0 mm 2 m/s 652 mmHg 29%
    14:00 +29°C° 0 mm 3 m/s 651 mmHg 27%
    15:00 +28°C° 0 mm 2 m/s 651 mmHg 29%
    16:00 +28°C° 0 mm 2 m/s 651 mmHg 32%
    17:00 +27°C° 0 mm 2 m/s 651 mmHg 35%
    18:00 +25°C° 0 mm 2 m/s 651 mmHg 44%
    19:00 +23°C° 0 mm 1 m/s 651 mmHg 53%
    20:00 +21°C° 0 mm 1 m/s 652 mmHg 62%
    21:00 +20°C° 0 mm 1 m/s 652 mmHg 64%
    22:00 +20°C° 0 mm 1 m/s 652 mmHg 65%
    23:00 +20°C° 0 mm 1 m/s 653 mmHg 67%

    19 Agosto, Domingo

    Tempo Temperatura Precipitação Vento Pressão Humidade
    00:00 +19°C° 0 mm 1 m/s 653 mmHg 68%
    01:00 +19°C° 0 mm 1 m/s 653 mmHg 69%
    02:00 +18°C° 0 mm 1 m/s 652 mmHg 69%
    03:00 +17°C° 0 mm 2 m/s 652 mmHg 71%
    04:00 +16°C° 0 mm 2 m/s 652 mmHg 73%
    05:00 +15°C° 0 mm 2 m/s 652 mmHg 74%
    06:00 +15°C° 0 mm 2 m/s 653 mmHg 74%
    07:00 +15°C° 0 mm 2 m/s 654 mmHg 73%
    08:00 +15°C° 0 mm 2 m/s 655 mmHg 73%
    09:00 +14°C° 0 mm 3 m/s 655 mmHg 72%
    10:00 +14°C° 0 mm 3 m/s 655 mmHg 70%
    11:00 +13°C° 0 mm 3 m/s 656 mmHg 69%
    12:00 +13°C° 0 mm 3 m/s 655 mmHg 68%
    13:00 +13°C° 0 mm 3 m/s 654 mmHg 66%
    14:00 +12°C° 0 mm 3 m/s 654 mmHg 65%
    15:00 +12°C° 0 mm 3 m/s 654 mmHg 65%
    16:00 +11°C° 0 mm 3 m/s 654 mmHg 64%
    17:00 +11°C° 0 mm 3 m/s 654 mmHg 63%
    18:00 +10°C° 0 mm 3 m/s 655 mmHg 64%
    19:00 +9°C° 0 mm 2 m/s 656 mmHg 65%
    20:00 +8°C° 0 mm 2 m/s 656 mmHg 65%
    21:00 +8°C° 0 mm 2 m/s 657 mmHg 66%
    22:00 +8°C° 0 mm 2 m/s 657 mmHg 66%
    23:00 +8°C° 0 mm 1 m/s 657 mmHg 66%

    20 Agosto, Segunda-feira

    Tempo Temperatura Precipitação Vento Pressão Humidade
    00:00 +8°C° 0 mm 1 m/s 657 mmHg 66%
    01:00 +8°C° 0 mm 1 m/s 656 mmHg 67%
    02:00 +7°C° 0 mm 1 m/s 656 mmHg 67%
    03:00 +7°C° 0 mm 1 m/s 656 mmHg 68%
    04:00 +7°C° 0 mm 1 m/s 656 mmHg 69%
    05:00 +6°C° 0 mm 1 m/s 655 mmHg 70%
    06:00 +7°C° 0 mm 1 m/s 656 mmHg 67%
    07:00 +7°C° 0 mm 1 m/s 656 mmHg 64%
    08:00 +8°C° 0 mm 1 m/s 656 mmHg 61%
    09:00 +9°C° 0 mm 2 m/s 657 mmHg 53%
    10:00 +12°C° 0 mm 2 m/s 657 mmHg 45%
    11:00 +14°C° 0 mm 2 m/s 657 mmHg 37%
    12:00 +14°C° 0 mm 3 m/s 656 mmHg 35%
    13:00 +16°C° 0 mm 3 m/s 655 mmHg 33%
    14:00 +17°C° 0 mm 3 m/s 654 mmHg 32%
    15:00 +16°C° 0 mm 3 m/s 654 mmHg 34%
    16:00 +14°C° 0 mm 3 m/s 654 mmHg 36%
    17:00 +14°C° 0 mm 3 m/s 653 mmHg 38%
    18:00 +13°C° 0 mm 2 m/s 653 mmHg 43%
    19:00 +11°C° 0 mm 1 m/s 653 mmHg 49%
    20:00 +10°C° 0 mm 1 m/s 653 mmHg 54%
    21:00 +9°C° 0 mm 1 m/s 653 mmHg 56%
    22:00 +9°C° 0 mm 1 m/s 653 mmHg 58%
    23:00 +8°C° 0 mm 1 m/s 653 mmHg 60%

    21 Agosto, Terça-feira

    Tempo Temperatura Precipitação Vento Pressão Humidade
    00:00 +8°C° 0 mm 1 m/s 653 mmHg 60%
    01:00 +8°C° 0 mm 1 m/s 652 mmHg 61%
    02:00 +7°C° 0 mm 1 m/s 652 mmHg 62%
    03:00 +7°C° 0 mm 1 m/s 652 mmHg 61%
    04:00 +7°C° 0 mm 1 m/s 652 mmHg 61%
    05:00 +7°C° 0 mm 1 m/s 652 mmHg 60%
    06:00 +8°C° 0 mm 1 m/s 652 mmHg 57%
    07:00 +9°C° 0 mm 1 m/s 653 mmHg 54%
    08:00 +10°C° 0 mm 1 m/s 653 mmHg 51%
    09:00 +12°C° 0 mm 2 m/s 654 mmHg 44%
    10:00 +15°C° 0 mm 2 m/s 654 mmHg 37%
    11:00 +17°C° 0 mm 2 m/s 655 mmHg 30%
    12:00 +18°C° 0 mm 2 m/s 654 mmHg 28%
    13:00 +19°C° 0 mm 2 m/s 654 mmHg 26%
    14:00 +20°C° 0 mm 2 m/s 653 mmHg 24%
    15:00 +20°C° 0 mm 2 m/s 653 mmHg 26%
    16:00 +19°C° 0 mm 2 m/s 652 mmHg 27%
    17:00 +18°C° 0 mm 2 m/s 652 mmHg 29%
    18:00 +16°C° 0 mm 2 m/s 652 mmHg 35%
    19:00 +14°C° 0 mm 1 m/s 652 mmHg 41%
    20:00 +12°C° 0 mm 1 m/s 652 mmHg 47%
    21:00 +12°C° 0 mm 1 m/s 652 mmHg 49%
    22:00 +11°C° 0 mm 1 m/s 652 mmHg 50%
    23:00 +11°C° 0 mm 1 m/s 652 mmHg 52%
    Mostrar mais